Location: Catacaguana
(10.4120°N, 66.7591°W)
Time: 05:11:23
(UTC+00:00)

Cosmos 1833 Rocket - Pass Details

Date: 27 May 2022
Orbit: 833 x 839 km, 71.0° (Epoch: 26 June)

Event Time Altitude Azimuth Distance (km) Brightness Sun altitude
Exits shadow 09:32:23 - 223° (SW) 2,688 4.7 -8.0°
Reaches altitude 10° 09:33:08 10° 227° (SW) 2,436 4.5 -7.9°
Maximum altitude 09:37:59 30° 288° (WNW) 1,437 3.5 -6.8°
Drops below altitude 10° 09:42:50 10° 348° (NNW) 2,433 5.3 -5.7°
Sets 09:45:33 0° 359° (N) 3,366 6.1 -5.1°
